ZHUHAI-1 02 (CAS-4B) (42759 NORAD) Tracking and Keplerian Element Data

This shows tracking and keplerian element data for the satellite.

Feedback or suggestion? Click here.




ElementValue
Catalog42759
NameZHUHAI-1 02 (CAS-4B)
Epoch Orbit30007
Epoch Day325.10298291
Epoch Year2022
RAAN188.5116
Inclination43.0166
Eccentricity0.0010146
Argument of Perigee208.4041
Mean Anonmoly289.2657
Mean Motion15.13289583
Decay Rate4.046E-05
L11 42759U 17034B 22325.10298291 .00004046 00000+0 23556-3 0 9995
L22 42759 43.0166 188.5116 0010146 208.4041 289.2657 15.13289583300074



Live tracking and technical data element details for ZHUHAI-1 02 (CAS-4B) (NORAD 42759). ZHUHAI-1 02 (CAS-4B) can be tracked NOW for your location showing map with azimuth and elevation plus other details from your city location.







IsCatalogInMostPopularTable: catalog: 42759, numindb: 854
Update: records affected: 1



GetName: 42759 ZHUHAI-1 02 (CAS-4B)

Hit Count: updated at: Fri, 02 Dec 2022 13:07:43 GMT